Tracking 19489 objects as of 22-Jan-2019
HD Live streaming from Space Station
objects crossing your sky now

FENGYUN 1C DEB

Track FENGYUN 1C DEB now!
10-day predictions


NORAD ID: 32114
Int'l Code: 1999-025CRG
Perigee: 699.0 km
Apogee: 815.1 km
Inclination: 100.0 °
Period: 99.8 minutes
Semi major axis: 7128 km
RCS: 0.0153 m2 (small)
Launch date: May 10, 1999
Source: People's Republic of China (PRC)
Launch site: Taiyaun Space Center, China (TSC)

Note: This is SATELLITE DEBRIS
aabbcc
Your satellite tracking list
Your tracking list is empty




NASA's NSSDC Master Catalog

Two Line Element Set (TLE):
1 32114U 99025CRG 19018.19031853  .00000249  00000-0  89356-4 0  9995
2 32114  99.9567  11.0505 0081447 120.4319 240.4944 14.42608613604860
Source of the keplerian elements: AFSPC